Regional Weather Roundup
Issued by NWS

Home | Current Version | Previous Version | Text Only | Print | Product List | Glossary On
Versions: 1 2 3 4 5 6 7 8 9 10 11 12 13 14 15 16 17 18 19 20 21 22 23 24 25 26 27 28 29 30 31 32 33 34 35 36 37 38 39 40 41 42 43 44 45 46 47 48 49 50
000
ASUS44 KBMX 211710
RWRAL

ALABAMA REGIONAL WEATHER ROUNDUP
NATIONAL WEATHER SERVICE BIRMINGHAM AL
1100 AM CST TUE NOV 21 2017

NOTE: "FAIR" INDICATES FEW OR NO CLOUDS BELOW 12,000 FEET
WITH NO SIGNIFICANT WEATHER AND/OR OBSTRUCTIONS TO VISIBILITY.

THE REMARK "TC" DENOTES TEMPERATURE IN DEGREES CELSIUS.

ALZ001>011-014-016>018-020-211800-
NORTH ALABAMA

CITY           SKY/WX    TMP DP  RH WIND       PRES   REMARKS
MUSCLE SHOALS  CLOUDY    55  34  45 CALM      30.09F
HUNTSVILLE     MOSUNNY   57  40  52 CALM      30.08F
DECATUR        SUNNY     54  39  57 VRB3      30.09F
HALEYVILLE     FAIR      55  35  47 SW6       30.10S
GADSDEN        CLOUDY    52  46  80 CALM      30.10F
$$

ALZ012-013-022-023-030>036-040>044-211800-
WEST CENTRAL ALABAMA

CITY           SKY/WX    TMP DP  RH WIND       PRES   REMARKS
TUSCALOOSA     SUNNY     57  42  57 S5        30.09F
DEMOPOLIS        N/A     60  42  51 CALM      30.07F
$$

ALZ015-024>026-033>036-041>044-211800-
CENTRAL ALABAMA

CITY           SKY/WX    TMP DP  RH WIND       PRES   REMARKS
BIRMINGHAM     MOSUNNY   60  41  49 S6        30.10F
MONTGOMERY     PTSUNNY   62  44  51 CALM      30.06F
SHELBY CO ARPT SUNNY     60  44  55 VRB6      30.08F
MAXWELL AFB    MOSUNNY   62  47  59 CALM      30.05F
GREENVILLE     CLOUDY    65  42  43 CALM      30.04F
SELMA          FAIR      63  45  51 VRB3      30.06F
PRATTVILLE     FAIR      61  45  54 CALM      30.06F
BESSEMER       FAIR      59  41  51 SW8       30.08F
TALLADEGA      CLOUDY    55  48  76 NW3       30.09F
PELL CITY      CLOUDY    57  48  72 CALM      30.09F
MARION         FAIR      58  45  60 CALM      30.07F
SYLACAUGA      FAIR      63  53  70 SW5       30.07F
$$

ALZ019-021-028-029-037-038-045>048-211800-
EAST CENTRAL ALABAMA

CITY           SKY/WX    TMP DP  RH WIND       PRES   REMARKS
ANNISTON       CLOUDY    59  50  72 NE6       30.07F
ALEXANDER CITY CLOUDY    58  51  76 S3        30.07F
AUBURN         PTSUNNY   58  51  78 CALM      30.08F
$$

ALZ051>064-211800-
SOUTHWEST ALABAMA

CITY           SKY/WX    TMP DP  RH WIND       PRES   REMARKS
MOBILE         MOSUNNY   66  49  54 E6        30.03F
BROOKLEY FIELD SUNNY     62  48  60 N6        30.05F
EVERGREEN      SUNNY     65  44  46 E3        30.04F
$$

ALZ049-050-065>069-211800-
SOUTHEAST ALABAMA

CITY           SKY/WX    TMP DP  RH WIND       PRES   REMARKS
DOTHAN         CLOUDY    60  53  77 CALM      30.08F
OZARK          CLOUDY    60  51  74 N5        30.04F
TROY           PTSUNNY   60  52  74 CALM      30.06F
EUFAULA        PTSUNNY   60  51  72 CALM      30.05F
$$



USA.gov is the U.S. government's official web portal to all federal, state and local government web resources and services.